When you browse on this site, cookies collect data to enhance your experience and personalize the content and advertising you see.
Visit our Privacy Policy to learn more. By continuing to use the site, you agree to this use of cookies and data.
  • In Deutschland
  • Länderverzeichnis
  • Für 7 Tage
  • Wassertemperatur
  • Satellitenkarten
  • Wetterkarte
  • Widgets
  • user-avatar
    Anmelden

    Stündliche Wetter Akka

    Heute, 17 Dezember, Montag

    Zeit Temperatur Niederschläge Wind Luftdruck Luftfeuchtigkeit
    00:00 +17°C° 0 mm 3 m/S 762 mmHg 69%
    01:00 +17°C° 0 mm 3 m/S 762 mmHg 70%
    02:00 +16°C° 0 mm 3 m/S 761 mmHg 72%
    03:00 +16°C° 0 mm 3 m/S 761 mmHg 73%
    04:00 +16°C° 0 mm 3 m/S 761 mmHg 73%
    05:00 +14°C° 0 mm 3 m/S 761 mmHg 74%
    06:00 +16°C° 0 mm 3 m/S 761 mmHg 72%
    07:00 +15°C° 0 mm 4 m/S 762 mmHg 70%
    08:00 +17°C° 0 mm 4 m/S 761 mmHg 67%
    09:00 +17°C° 0.3 mm 5 m/S 761 mmHg 63%
    10:00 +19°C° 0.3 mm 6 m/S 761 mmHg 58%
    11:00 +20°C° 0.3 mm 7 m/S 761 mmHg 54%
    12:00 +20°C° 1.1 mm 7 m/S 761 mmHg 57%
    13:00 +20°C° 1.1 mm 7 m/S 761 mmHg 60%
    14:00 +18°C° 1.1 mm 7 m/S 761 mmHg 63%
    15:00 +18°C° 1 mm 7 m/S 762 mmHg 67%
    16:00 +17°C° 1 mm 7 m/S 762 mmHg 72%
    17:00 +16°C° 1 mm 6 m/S 762 mmHg 77%
    18:00 +16°C° 0.9 mm 6 m/S 762 mmHg 77%
    19:00 +16°C° 0.9 mm 5 m/S 762 mmHg 78%
    20:00 +15°C° 0.9 mm 5 m/S 763 mmHg 78%
    21:00 +15°C° 0.4 mm 5 m/S 763 mmHg 77%
    22:00 +15°C° 0.4 mm 4 m/S 763 mmHg 76%
    23:00 +15°C° 0.4 mm 4 m/S 764 mmHg 76%

    Morgen, 18 Dezember, Dienstag

    Zeit Temperatur Niederschläge Wind Luftdruck Luftfeuchtigkeit
    00:00 +15°C° 0.3 mm 4 m/S 764 mmHg 76%
    01:00 +15°C° 0.3 mm 4 m/S 764 mmHg 77%
    02:00 +15°C° 0.3 mm 4 m/S 764 mmHg 77%
    03:00 +15°C° 0.2 mm 4 m/S 764 mmHg 79%
    04:00 +15°C° 0.2 mm 4 m/S 764 mmHg 81%
    05:00 +15°C° 0.2 mm 4 m/S 764 mmHg 82%
    06:00 +15°C° 0.2 mm 4 m/S 764 mmHg 83%
    07:00 +16°C° 0.2 mm 3 m/S 764 mmHg 83%
    08:00 +17°C° 0.2 mm 3 m/S 765 mmHg 83%
    09:00 +17°C° 0.2 mm 4 m/S 765 mmHg 81%
    10:00 +18°C° 0.2 mm 4 m/S 765 mmHg 79%
    11:00 +18°C° 0.2 mm 4 m/S 765 mmHg 76%
    12:00 +19°C° 0.3 mm 4 m/S 765 mmHg 75%
    13:00 +19°C° 0.3 mm 5 m/S 764 mmHg 74%
    14:00 +19°C° 0.3 mm 5 m/S 764 mmHg 72%
    15:00 +19°C° 0.3 mm 5 m/S 764 mmHg 74%
    16:00 +17°C° 0.3 mm 5 m/S 764 mmHg 76%
    17:00 +17°C° 0.3 mm 5 m/S 764 mmHg 78%
    18:00 +17°C° 0.2 mm 4 m/S 764 mmHg 79%
    19:00 +17°C° 0.2 mm 4 m/S 764 mmHg 80%
    20:00 +17°C° 0.2 mm 4 m/S 764 mmHg 81%
    21:00 +15°C° 0.1 mm 4 m/S 764 mmHg 81%
    22:00 +15°C° 0.1 mm 4 m/S 764 mmHg 80%
    23:00 +15°C° 0.1 mm 4 m/S 764 mmHg 80%

    übermorgen, 19 Dezember, Mittwoch

    Zeit Temperatur Niederschläge Wind Luftdruck Luftfeuchtigkeit
    00:00 +15°C° 0 mm 5 m/S 763 mmHg 79%
    01:00 +15°C° 0 mm 5 m/S 763 mmHg 78%
    02:00 +14°C° 0 mm 5 m/S 763 mmHg 77%
    03:00 +14°C° 0.1 mm 5 m/S 763 mmHg 76%
    04:00 +14°C° 0.1 mm 6 m/S 762 mmHg 75%
    05:00 +14°C° 0.1 mm 6 m/S 762 mmHg 75%
    06:00 +14°C° 0.6 mm 6 m/S 762 mmHg 73%
    07:00 +15°C° 0.6 mm 6 m/S 762 mmHg 70%
    08:00 +15°C° 0.6 mm 6 m/S 762 mmHg 68%
    09:00 +16°C° 1.2 mm 6 m/S 762 mmHg 68%
    10:00 +17°C° 1.2 mm 7 m/S 762 mmHg 67%
    11:00 +17°C° 1.2 mm 7 m/S 762 mmHg 67%
    12:00 +17°C° 0.8 mm 7 m/S 762 mmHg 66%
    13:00 +18°C° 0.8 mm 8 m/S 761 mmHg 65%
    14:00 +18°C° 0.8 mm 8 m/S 761 mmHg 65%
    15:00 +17°C° 0.9 mm 7 m/S 761 mmHg 69%
    16:00 +16°C° 0.9 mm 7 m/S 761 mmHg 73%
    17:00 +15°C° 0.9 mm 7 m/S 761 mmHg 77%
    18:00 +15°C° 1.1 mm 7 m/S 761 mmHg 79%
    19:00 +15°C° 1.1 mm 6 m/S 762 mmHg 80%
    20:00 +14°C° 1.1 mm 6 m/S 762 mmHg 82%
    21:00 +14°C° 1.4 mm 6 m/S 762 mmHg 83%
    22:00 +14°C° 1.4 mm 6 m/S 762 mmHg 84%
    23:00 +14°C° 1.4 mm 6 m/S 761 mmHg 85%

    20 Dezember, Donnerstag

    Zeit Temperatur Niederschläge Wind Luftdruck Luftfeuchtigkeit
    00:00 +14°C° 1.6 mm 6 m/S 761 mmHg 86%
    01:00 +14°C° 1.6 mm 6 m/S 761 mmHg 86%
    02:00 +14°C° 1.6 mm 6 m/S 761 mmHg 87%
    03:00 +14°C° 1.4 mm 7 m/S 761 mmHg 87%
    04:00 +14°C° 1.4 mm 7 m/S 761 mmHg 87%
    05:00 +12°C° 1.4 mm 7 m/S 761 mmHg 87%
    06:00 +14°C° 0.8 mm 7 m/S 762 mmHg 85%
    07:00 +14°C° 0.8 mm 7 m/S 762 mmHg 84%
    08:00 +14°C° 0.8 mm 6 m/S 763 mmHg 82%
    09:00 +15°C° 0.4 mm 7 m/S 763 mmHg 78%
    10:00 +16°C° 0.4 mm 7 m/S 763 mmHg 74%
    11:00 +17°C° 0.4 mm 7 m/S 764 mmHg 69%
    12:00 +17°C° 0.3 mm 7 m/S 763 mmHg 69%
    13:00 +17°C° 0.3 mm 7 m/S 763 mmHg 69%
    14:00 +17°C° 0.3 mm 6 m/S 763 mmHg 69%
    15:00 +16°C° 0.3 mm 6 m/S 763 mmHg 72%
    16:00 +16°C° 0.3 mm 5 m/S 764 mmHg 75%
    17:00 +15°C° 0.3 mm 5 m/S 764 mmHg 79%
    18:00 +15°C° 0.5 mm 5 m/S 764 mmHg 79%
    19:00 +15°C° 0.5 mm 4 m/S 765 mmHg 80%
    20:00 +14°C° 0.5 mm 4 m/S 765 mmHg 81%
    21:00 +14°C° 0.7 mm 4 m/S 765 mmHg 82%
    22:00 +14°C° 0.7 mm 3 m/S 765 mmHg 83%
    23:00 +14°C° 0.7 mm 3 m/S 765 mmHg 84%

    21 Dezember, Freitag

    Zeit Temperatur Niederschläge Wind Luftdruck Luftfeuchtigkeit
    00:00 +14°C° 0.4 mm 3 m/S 765 mmHg 84%
    01:00 +14°C° 0.4 mm 3 m/S 765 mmHg 85%
    02:00 +13°C° 0.4 mm 3 m/S 765 mmHg 86%
    03:00 +13°C° 0.1 mm 3 m/S 765 mmHg 86%
    04:00 +14°C° 0.1 mm 2 m/S 766 mmHg 87%
    05:00 +14°C° 0.1 mm 2 m/S 766 mmHg 88%
    06:00 +14°C° 0 mm 2 m/S 766 mmHg 87%
    07:00 +15°C° 0 mm 2 m/S 766 mmHg 86%
    08:00 +15°C° 0 mm 2 m/S 767 mmHg 84%
    09:00 +16°C° 0 mm 1 m/S 767 mmHg 79%
    10:00 +18°C° 0 mm 1 m/S 767 mmHg 74%
    11:00 +19°C° 0 mm 1 m/S 767 mmHg 68%
    12:00 +19°C° 0 mm 1 m/S 767 mmHg 66%
    13:00 +19°C° 0 mm 2 m/S 766 mmHg 64%
    14:00 +19°C° 0 mm 2 m/S 766 mmHg 62%
    15:00 +18°C° 0 mm 2 m/S 766 mmHg 67%
    16:00 +17°C° 0 mm 2 m/S 766 mmHg 71%
    17:00 +16°C° 0 mm 2 m/S 766 mmHg 75%
    18:00 +16°C° 0 mm 2 m/S 767 mmHg 76%
    19:00 +15°C° 0 mm 1 m/S 767 mmHg 77%
    20:00 +15°C° 0 mm 1 m/S 767 mmHg 78%
    21:00 +15°C° 0 mm 1 m/S 767 mmHg 79%
    22:00 +15°C° 0 mm 1 m/S 767 mmHg 80%
    23:00 +14°C° 0 mm 1 m/S 767 mmHg 81%

    22 Dezember, Samstag

    Zeit Temperatur Niederschläge Wind Luftdruck Luftfeuchtigkeit
    00:00 +14°C° 0 mm 1 m/S 767 mmHg 81%
    01:00 +14°C° 0 mm 1 m/S 767 mmHg 81%
    02:00 +14°C° 0 mm 1 m/S 766 mmHg 81%
    03:00 +14°C° 0.1 mm 2 m/S 766 mmHg 81%
    04:00 +14°C° 0.1 mm 2 m/S 766 mmHg 80%
    05:00 +13°C° 0.1 mm 2 m/S 766 mmHg 80%
    06:00 +14°C° 0.2 mm 2 m/S 766 mmHg 79%
    07:00 +15°C° 0.2 mm 2 m/S 766 mmHg 78%
    08:00 +14°C° 0.2 mm 3 m/S 767 mmHg 77%
    09:00 +16°C° 0.2 mm 3 m/S 766 mmHg 77%
    10:00 +16°C° 0.2 mm 3 m/S 766 mmHg 76%
    11:00 +17°C° 0.2 mm 4 m/S 766 mmHg 76%
    12:00 +17°C° 0.1 mm 4 m/S 766 mmHg 74%
    13:00 +16°C° 0.1 mm 5 m/S 766 mmHg 71%
    14:00 +17°C° 0.1 mm 5 m/S 765 mmHg 69%
    15:00 +16°C° 0.1 mm 5 m/S 765 mmHg 72%
    16:00 +15°C° 0.1 mm 4 m/S 766 mmHg 75%
    17:00 +15°C° 0.1 mm 4 m/S 766 mmHg 78%
    18:00 +15°C° 0.1 mm 4 m/S 766 mmHg 78%
    19:00 +16°C° 0.1 mm 3 m/S 766 mmHg 78%
    20:00 +16°C° 0.1 mm 3 m/S 766 mmHg 78%
    21:00 +16°C° 0.1 mm 3 m/S 766 mmHg 78%
    22:00 +15°C° 0.1 mm 2 m/S 766 mmHg 78%
    23:00 +15°C° 0.1 mm 2 m/S 766 mmHg 78%
    Mehr zeigen